DW0307 Weather Reports


time (UTC)temp
C
wind
direction
speed
KPH
gust
KPH
rain 1hr
cm
rain 24hr
cm
rain mn
cm
humidity
%
barometer
mb
20260505170048 20 233 16.1 27.4 0.00 0.00 0.00 36 1010.5
20260505164605 20 221 12.9 32.2 0.00 0.00 0.00 35 1010.7
20260505163101 20 221 20.9 40.2 0.00 0.00 0.00 36 1010.7
20260505161607 20 227 17.7 30.6 0.00 0.00 0.00 38 1010.8
20260505153051 21 223 19.3 35.4 0.00 0.00 0.00 33 1011.0
20260505151547 22 200 20.9 40.2 0.00 0.00 0.00 34 1011.0
20260505130110 23 217 30.6 41.8 0.00 0.00 0.00 31 1011.8
20260505124602 23 229 24.1 46.7 0.00 0.00 0.00 31 1011.9
20260505123054 23 229 33.8 45.1 0.00 0.00 0.00 31 1011.9
20260505121552 23 249 25.7 43.5 0.00 0.00 0.00 30 1012.0
20260505120111 22 229 24.1 43.5 0.00 0.00 0.00 31 1012.1
20260505114549 22 224 27.4 48.3 0.00 0.00 0.00 31 1012.5
20260505113059 22 240 30.6 46.7 0.00 0.00 0.00 31 1012.4
20260505111544 21 215 24.1 38.6 0.00 0.00 0.00 32 1012.7
20260505101552 22 248 33.8 45.1 0.00 0.00 0.00 31 1013.2
20260505100051 22 244 32.2 51.5 0.00 0.00 0.00 31 1013.5
20260505094546 23 215 27.4 40.2 0.00 0.00 0.00 30 1013.5
20260505093050 22 192 25.7 41.8 0.00 0.00 0.00 33 1013.4
20260505091554 22 227 19.3 35.4 0.00 0.00 0.00 35 1013.6
20260505090059 21 240 20.9 35.4 0.00 0.00 0.00 36 1013.5
20260505084551 21 221 22.5 37.0 0.00 0.00 0.00 34 1013.6
20260505083046 21 246 22.5 41.8 0.00 0.00 0.00 37 1013.6
20260505081603 21 233 25.7 37.0 0.00 0.00 0.00 36 1013.8
20260505080050 22 182 16.1 46.7 0.00 0.00 0.00 36 1013.8
20260505074548 21 225 22.5 32.2 0.00 0.00 0.00 37 1013.9
20260505073058 21 227 22.5 30.6 0.00 0.00 0.00 37 1013.9
20260505071552 21 217 6.4 20.9 0.00 0.00 0.00 37 1014.1
20260505070053 20 172 11.3 25.7 0.00 0.00 0.00 39 1014.2
20260505064548 19 247 16.1 24.1 0.00 0.00 0.00 37 1014.1
20260505063052 18 244 17.7 27.4 0.00 0.00 0.00 39 1014.2
20260505061552 18 240 20.9 30.6 0.00 0.00 0.00 38 1014.3
20260505060050 18 227 17.7 25.7 0.00 0.00 0.00 40 1014.2
20260505054559 17 217 6.4 14.5 0.00 0.00 0.00 44 1014.3
20260505053054 16 210 8.0 24.1 0.00 0.00 0.00 43 1014.4
20260505051549 15 188 12.9 20.9 0.00 0.00 0.00 44 1014.4
20260505041554 9 219 9.7 14.5 0.00 0.00 0.00 61 1014.4
20260505040054 7 221 8.0 14.5 0.00 0.00 0.00 65 1014.5
20260505034550 6 191 9.7 12.9 0.00 0.00 0.00 67 1014.5
20260505033051 6 221 4.8 8.0 0.00 0.00 0.00 66 1014.4
20260505031552 6 204 8.0 11.3 0.00 0.00 0.00 66 1014.5
20260505030048 6 198 8.0 11.3 0.00 0.00 0.00 67 1014.5
20260505024547 5 252 6.4 12.9 0.00 0.00 0.00 68 1014.5
20260505023055 5 250 4.8 11.3 0.00 0.00 0.00 68 1014.5
20260505021549 5 259 3.2 11.3 0.00 0.00 0.00 67 1014.6
20260505020055 6 219 4.8 9.7 0.00 0.00 0.00 65 1014.7
20260505014550 6 250 3.2 12.9 0.00 0.00 0.00 66 1014.8
20260505013047 6 255 8.0 12.9 0.00 0.00 0.00 67 1014.8
20260505011554 6 219 6.4 11.3 0.00 0.00 0.00 68 1014.8
20260505010100 5 272 3.2 9.7 0.00 0.00 0.00 70 1014.9
20260505004552 5 268 6.4 11.3 0.00 0.00 0.00 68 1014.9
20260505003057 5 258 4.8 9.7 0.00 0.00 0.00 68 1015.2
20260505001550 5 259 3.2 4.8 0.00 0.00 0.00 68 1015.3
20260505000058 6 259 1.6 6.4 0.00 0.00 0.00 68 1015.3
20260504234553 5 259 4.8 6.4 0.00 0.00 0.00 69 1015.5
20260504233050 6 257 3.2 4.8 0.00 0.00 0.00 67 1015.6
20260504231552 5 257 3.2 6.4 0.00 0.00 0.00 69 1015.7
20260504230050 5 253 3.2 6.4 0.00 0.00 0.00 70 1015.8
20260504224549 5 235 3.2 8.0 0.00 0.00 0.00 68 1015.9
20260504223051 5 225 4.8 9.7 0.00 0.00 0.00 69 1015.9
20260504221551 5 253 8.0 11.3 0.00 0.00 0.00 68 1016.1
20260504220111 6 248 6.4 11.3 0.00 0.00 0.00 67 1016.1
20260504214552 6 242 6.4 12.9 0.00 0.00 0.00 65 1016.1
20260504213052 7 238 9.7 16.1 0.00 0.00 0.00 62 1016.1
20260504211555 6 236 12.9 16.1 0.00 0.00 0.00 65 1016.2
20260504210059 7 242 9.7 14.5 0.00 0.00 0.00 64 1016.2
20260504204549 7 242 8.0 12.9 0.00 0.00 0.00 60 1016.3
20260504203055 8 238 8.0 12.9 0.00 0.00 0.00 58 1016.3
20260504201547 8 247 11.3 16.1 0.00 0.00 0.00 57 1016.2
20260504200055 9 254 11.3 16.1 0.00 0.00 0.00 55 1016.2
20260504194549 10 246 12.9 19.3 0.00 0.00 0.00 52 1016.1
20260504193051 11 245 16.1 19.3 0.00 0.00 0.00 49 1016.2
20260504191557 12 248 16.1 19.3 0.00 0.00 0.00 47 1016.1
20260504190059 13 248 14.5 22.5 0.00 0.00 0.00 43 1016.0
20260504184609 16 239 17.7 29.0 0.00 0.00 0.00 37 1016.0
20260504183053 16 234 20.9 32.2 0.00 0.00 0.00 37 1015.8
20260504181549 15 232 16.1 20.9 0.00 0.00 0.00 40 1015.7
20260504180049 13 240 12.9 19.3 0.00 0.00 0.00 44 1015.6
20260504174547 15 232 9.7 16.1 0.00 0.00 0.00 42 1015.5
20260504173042 16 224 8.0 14.5 0.00 0.00 0.00 37 1015.5
20260504171549 18 234 9.7 12.9 0.00 0.00 0.00 34 1015.2